Showing default

R5-S4, 60206

Orbit data source: Space-Track

R5-S4, 60206 is a payload satellite owned by NASA JSC (US) in SSO that was launched on Thu, 04 Jul 2024 UTC via an FIREFLY ALPHA launch vehicle from the Air Force Western Test Range (AFWTR). Payload-class satellites include a variety of spacecraft equipped with specific instruments for various scientific and technological missions. These include communications satellites like Starlink; space stations such as the ISS; scientific satellites like the Hubble; Earth observation satellites from companies like Planet Labs, Umbra, and HawkEye 360; GPS; miniature CubeSats for education and research; and military/defense satellites.

Loading next visibility...
Identifier
60206, 2024-125D
Orbit
SSO
Country
Flag of USUS
Related business
Manufacturer
NASA JSC
Mission
Operational spacecraft
Bus & Motor
CUBESAT 6U, Unknown motor
Mass
10 kg wet, ~10 kg dry
Launch date (UTC)
2024-07-04 (1 year ago)
Launch vehicle
FIREFLY ALPHA
Launch site
Air Force Western Test Range (AFWTR)
Object type
Payload
Rocket body
Debris
Shape & HBR
Unknown
Radar Cross Section
Medium (>0.1 m² and <1 m²)

Expand to show TLE details & history
Last TLE update: 18 hours ago

TLE from 18 hours ago
0 R5-S4
1 60206U 24125D   25260.51704947  .00009483  00000-0  29271-3 0  9998
2 60206  97.2704 109.6440 0021588 131.4772 228.8329 15.33536395 67200
Epoch: 2025-09-17T12:24Z
TLE epoch observation values (Epoch: 2025-09-17T12:24:33.074Z)
Latitude
0.00002°
Longitude
-73.18568°
Altitude
478.129 km
Speed
7.621 km/s
True Right ascension
07h 18m 34s
True Declination
0° 00' 00"
Sunlit
Object was in daylight at epoch
Visualization orbit readout
Latitude
Unknown
Longitude
Unknown
Altitude
Unknown
Speed
Unknown
Apparent Right ascension
Unknown
Apparent Declination
Unknown
Sunlit
N/A
Visualization observer readout
Local Sidereal Time
23:30:22
Azimuth
Unknown
Elevation
Unknown
Doppler factor
Unknown
Orbital elements
Apogee altitude
476.98 km
Perigee altitude
447.446 km
Semi-major axis
6,840.35 km
Eccentricity
0.00216
Inclination
97.2704°
RAAN
109.644°
Arg. of periapsis
131.4772°
True anomaly
228.647°
Mean anomaly
228.8329°
Eccentric anomaly
228.73992°
Mean motion
3.83642 °/min
Orbital period
93.84 mins
BSTAR
0.00029271
Loading maneuver chart data...
Computing Atmospheric mass density...
Loading historical data...
Loading historical data...
Loading historical data...
Loading historical data...
Loading historical data...
Loading historical data...
Loading historical data...

Documentation

Showing up to 5 results
|